Starlink 35267

operational
NORAD ID: 65592 Int'l Des: 2025-207 Owner: SPXS Country: US Constellation: starlink
NOTLE

Über Starlink 35267

Beschreibung wird geladen...

Live-Position

3D-Globus wird geladen...

Nächste Überflüge

Höhenverlauf

Altitude vs Time

uPlot chart will show altitude changes over time

Zweizeiliger Elementsatz

1 65592U 25207A 25308.45334410 .00050071 00000-0 12765-2 0 9991
2 65592 97.6069 12.6806 0002384 95.0623 265.0894 15.39369648 9244
Epoch: 4. Nov. 2025 • Age: 23 hours

Aktueller Status

Höhe 454.3 km
Geschwindigkeit 7.64 km/s
Subsatellitenpunkt -14.67°S, 177.53°E
Startdatum 13. Sept. 2025
Alter 0.1 years
Typ internet

Technische Details

Klassifizierung Payload
Masse 575.00 kg
Trockenmasse 530.00 kg
Gesamtmasse 575.00 kg
Länge 0.30 m
Durchmesser 4.10 m
Spannweite 29.00 m
Form Box + pan
Hersteller SPXS
Bus-Typ Starlink V2MO
Phasenstatus In Orbit
Besitzer/Staat SPXS/US

Große Konstellationen

Loading constellations...